"startDT [UTC]","vpos","CH4 [ppm]","stdev(CH4) [ppm]","CO2 [ppm]","stdev(CO2) [ppm]","H2O [ppm]","stdev(H2O)","p_LGR [torr]","T_LGR [C]","mt1_LGR [us]","mt2_LGR [us]","T_ECpre [C]","T_EC1 [C]","T_EC2 [C]","p_inlet [hPa]","p_in [hPa]","p_out [hPa]","T_inlet [C]","RH_inlet [%]","dwpt_inlet [C]","T_vent [C]","RH_vent [%]","dwpt_vent [C]","flow_vent [l min-1]","flow_inlet [l min-1]","dwpt_sample [C]","T_room [C]"
2012-12-19 00:00:00,0.0,1.9156,0.0010,-1.00,0.00,-1.0,0.2,138.15,26.24,24.62,36.47,0.04,-272.75,-272.75,-36,549,-918,20.6,1.7,-32.2,20.6,1.7,-31.9,5.73,2.40,-31.0,25.6
2012-12-19 00:01:00,0.0,1.9156,0.0012,-1.00,0.00,-0.4,4.5,138.15,26.24,24.62,36.47,0.04,-272.75,-272.75,-36,549,-918,20.5,1.7,-32.3,20.6,1.7,-31.9,5.73,2.39,-31.0,25.6
2012-12-19 00:02:00,0.0,1.9159,0.0011,-1.00,0.00,-1.0,0.0,138.15,26.24,24.62,36.47,0.04,-272.75,-272.74,-36,549,-918,20.5,1.7,-32.3,20.6,1.7,-31.9,5.73,2.39,-31.0,25.5
2012-12-19 00:03:00,0.0,1.9158,0.0012,-1.00,0.00,-1.0,0.0,138.15,26.24,24.62,36.47,0.04,-272.74,-272.75,-36,549,-918,20.5,1.7,-32.3,20.6,1.7,-31.9,5.73,2.39,-31.0,25.6
2012-12-19 00:04:00,0.0,1.9159,0.0009,-1.00,0.00,-0.7,1.6,138.15,26.23,24.62,36.47,0.04,-272.75,-272.75,-36,549,-918,20.5,1.7,-32.3,20.6,1.7,-31.9,5.73,2.39,-31.0,25.6
2012-12-19 00:05:00,0.0,1.9160,0.0011,-1.00,0.00,-1.0,0.0,138.15,26.23,24.62,36.46,0.04,-272.75,-272.75,-36,549,-918,20.5,1.7,-32.3,20.6,1.7,-32.0,5.73,2.39,-31.0,25.5
2012-12-19 00:06:00,0.0,1.9157,0.0010,-1.00,0.00,-0.7,1.8,138.15,26.23,24.62,36.47,0.04,-272.74,-272.75,-36,549,-918,20.5,1.7,-32.4,20.5,1.7,-31.9,5.73,2.40,-31.0,25.5
2012-12-19 00:07:00,0.0,1.9160,0.0010,-1.00,0.00,-1.0,0.0,138.15,26.23,24.62,36.47,0.04,-272.75,-272.75,-36,549,-918,20.5,1.7,-32.4,20.5,1.7,-31.9,5.73,2.38,-31.0,25.5
2012-12-19 00:08:00,0.0,1.9160,0.0010,-1.00,0.00,1.0,9.7,138.15,26.22,24.62,36.47,0.04,-272.74,-272.75,-36,549,-917,20.5,1.6,-32.5,20.5,1.7,-32.0,5.73,2.38,-31.0,25.5
2012-12-19 00:09:00,0.0,1.9159,0.0012,-1.00,0.00,0.3,10.3,138.15,26.22,24.62,36.46,0.04,-272.75,-272.75,-36,549,-918,20.5,1.7,-32.4,20.5,1.7,-32.0,5.73,2.38,-31.0,25.5
2012-12-19 00:10:00,0.0,1.9160,0.0010,-1.00,0.00,0.9,8.0,138.15,26.21,24.62,36.46,0.04,-272.75,-272.74,-36,549,-917,20.5,1.6,-32.5,20.5,1.7,-31.9,5.73,2.38,-31.0,25.5
2012-12-19 00:11:00,0.0,1.9156,0.0009,-1.00,0.00,-0.2,4.6,138.15,26.21,24.62,36.47,0.04,-272.75,-272.75,-36,549,-917,20.5,1.7,-32.5,20.5,1.7,-32.0,5.73,2.38,-31.0,25.5
2012-12-19 00:12:00,0.0,1.9159,0.0011,-1.00,0.00,-0.5,3.8,138.15,26.21,24.62,36.47,0.04,-272.75,-272.74,-36,549,-918,20.5,1.7,-32.5,20.5,1.7,-32.0,5.73,2.38,-31.0,25.5
2012-12-19 00:13:00,0.0,1.9158,0.0010,-1.00,0.00,-1.0,0.0,138.15,26.21,24.62,36.46,0.04,-272.75,-272.75,-36,549,-918,20.5,1.7,-32.5,20.5,1.7,-32.1,5.73,2.39,-31.0,25.5
2012-12-19 00:14:00,0.0,1.9160,0.0010,-1.00,0.00,-1.0,0.0,138.15,26.20,24.62,36.47,0.04,-272.75,-272.75,-36,549,-918,20.5,1.7,-32.5,20.5,1.7,-32.1,5.73,2.39,-31.0,25.5
2012-12-19 00:15:00,0.0,1.9160,0.0009,-1.00,0.00,-0.8,1.4,138.15,26.20,24.62,36.46,0.04,-272.75,-272.75,-36,549,-918,20.5,1.6,-32.5,20.5,1.7,-32.1,5.73,2.39,-31.0,25.5
2012-12-19 00:16:00,0.0,1.9164,0.0011,-1.00,0.00,-1.0,0.0,138.15,26.20,24.62,36.47,0.04,-272.74,-272.75,-36,549,-918,20.5,1.6,-32.5,20.5,1.7,-32.1,5.73,2.40,-31.0,25.5
2012-12-19 00:17:00,0.0,1.9166,0.0012,-1.00,0.00,-1.0,0.0,138.15,26.20,24.62,36.47,0.04,-272.75,-272.75,-36,549,-917,20.5,1.6,-32.5,20.5,1.7,-32.1,5.73,2.40,-31.1,25.5
2012-12-19 00:18:00,0.0,1.9166,0.0010,-1.00,0.00,-1.0,0.0,138.15,26.20,24.62,36.46,0.04,-272.75,-272.75,-36,549,-918,20.5,1.7,-32.5,20.5,1.7,-32.0,5.73,2.39,-31.0,25.5
2012-12-19 00:19:00,0.0,1.9161,0.0012,-1.00,0.00,0.3,8.3,138.15,26.19,24.62,36.47,0.04,-272.75,-272.75,-36,549,-918,20.5,1.7,-32.5,20.5,1.7,-32.0,5.73,2.41,-31.0,25.5
2012-12-19 00:20:00,0.0,1.9165,0.0010,-1.00,0.00,-0.2,6.5,138.15,26.19,24.62,36.46,0.04,-272.74,-272.75,-36,549,-917,20.5,1.7,-32.5,20.5,1.7,-31.9,5.73,2.40,-31.0,25.5
2012-12-19 00:21:00,0.0,1.9167,0.0009,-1.00,0.00,-1.0,0.0,138.15,26.18,24.62,36.47,0.04,-272.75,-272.75,-36,549,-918,20.5,1.7,-32.4,20.5,1.7,-32.0,5.73,2.40,-31.0,25.5
2012-12-19 00:22:00,0.0,1.9167,0.0010,-1.00,0.00,-0.7,2.1,138.15,26.18,24.62,36.46,0.04,-272.75,-272.75,-36,549,-917,20.5,1.7,-32.3,20.5,1.7,-32.0,5.73,2.40,-31.0,25.6
2012-12-19 00:23:00,0.0,1.9165,0.0011,-1.00,0.00,-0.7,1.9,138.15,26.17,24.62,36.47,0.04,-272.75,-272.75,-36,549,-917,20.5,1.7,-32.4,20.5,1.7,-32.0,5.73,2.40,-31.0,25.5
2012-12-19 00:24:00,0.0,1.9165,0.0010,-1.00,0.00,-0.8,1.2,138.15,26.17,24.62,36.47,0.04,-272.75,-272.75,-36,549,-918,20.5,1.7,-32.5,20.5,1.7,-32.0,5.73,2.40,-31.0,25.5
2012-12-19 00:25:00,0.0,1.9169,0.0010,-1.00,0.00,-0.8,1.5,138.15,26.17,24.62,36.46,0.04,-272.75,-272.75,-36,549,-917,20.5,1.7,-32.3,20.5,1.7,-32.0,5.73,2.40,-31.0,25.5
2012-12-19 00:26:00,0.0,1.9170,0.0007,-1.00,0.00,-1.0,0.0,138.15,26.17,24.62,36.47,0.04,-272.75,-272.75,-36,549,-918,20.5,1.7,-32.3,20.5,1.7,-32.0,5.73,2.40,-31.0,25.5
2012-12-19 00:27:00,0.0,1.9166,0.0010,-1.00,0.00,-0.6,3.1,138.15,26.17,24.62,36.46,0.04,-272.74,-272.75,-36,549,-918,20.5,1.7,-32.3,20.5,1.7,-32.0,5.73,2.40,-31.0,25.5
2012-12-19 00:28:00,0.0,1.9171,0.0010,-1.00,0.00,-0.4,3.5,138.15,26.16,24.62,36.47,0.04,-272.75,-272.75,-36,549,-917,20.5,1.7,-32.3,20.5,1.7,-32.0,5.73,2.39,-31.0,25.5
2012-12-19 00:29:00,0.0,1.9173,0.0011,-1.00,0.00,-0.8,1.5,138.15,26.16,24.62,36.46,0.04,-272.75,-272.75,-36,549,-918,20.4,1.7,-32.2,20.5,1.7,-31.9,5.73,2.39,-31.0,25.5
2012-12-19 00:30:00,0.0,1.9170,0.0011,-1.00,0.00,-0.6,2.9,138.15,26.16,24.62,36.46,0.04,-272.75,-272.75,-36,549,-917,20.5,1.7,-32.2,20.5,1.8,-31.8,5.73,2.39,-31.0,25.5
2012-12-19 00:31:00,0.0,1.9169,0.0010,-1.00,0.00,-1.0,0.0,138.15,26.16,24.62,36.46,0.04,-272.75,-272.75,-36,549,-918,20.5,1.7,-32.3,20.5,1.8,-31.8,5.73,2.38,-31.0,25.5
2012-12-19 00:32:00,0.0,1.9167,0.0010,-1.00,0.00,-1.0,0.0,138.15,26.15,24.62,36.46,0.04,-272.75,-272.74,-36,549,-918,20.5,1.7,-32.3,20.5,1.8,-31.8,5.73,2.38,-31.0,25.5
2012-12-19 00:33:00,0.0,1.9167,0.0010,-1.00,0.00,-0.6,2.0,138.15,26.15,24.62,36.47,0.04,-272.75,-272.74,-36,549,-918,20.5,1.7,-32.4,20.5,1.8,-31.9,5.73,2.38,-31.0,25.5
2012-12-19 00:34:00,0.0,1.9169,0.0009,-1.00,0.00,-0.2,4.7,138.15,26.15,24.62,36.47,0.04,-272.75,-272.75,-36,549,-918,20.4,1.7,-32.3,20.5,1.7,-32.0,5.73,2.38,-31.0,25.5
2012-12-19 00:35:00,0.0,1.9164,0.0010,-1.00,0.00,-1.0,0.0,138.15,26.15,24.62,36.46,0.04,-272.75,-272.75,-36,549,-918,20.5,1.7,-32.3,20.5,1.7,-32.0,5.73,2.38,-31.0,25.5
2012-12-19 00:36:00,0.0,1.9165,0.0010,-1.00,0.00,-0.5,2.4,138.15,26.15,24.62,36.47,0.04,-272.75,-272.75,-36,549,-918,20.5,1.7,-32.3,20.5,1.7,-32.0,5.73,2.38,-31.0,25.5
2012-12-19 00:37:00,0.0,1.9165,0.0011,-1.00,0.00,-0.2,4.5,138.15,26.15,24.62,36.46,0.04,-272.75,-272.75,-36,549,-918,20.5,1.7,-32.3,20.5,1.7,-32.0,5.73,2.39,-31.0,25.5
2012-12-19 00:38:00,0.0,1.9169,0.0008,-1.00,0.00,-0.1,5.5,138.16,26.14,24.62,36.47,0.04,-272.75,-272.75,-36,549,-918,20.5,1.7,-32.4,20.5,1.7,-32.0,5.73,2.39,-31.0,25.5
2012-12-19 00:39:00,0.0,1.9171,0.0013,-1.00,0.00,-1.0,0.0,138.15,26.14,24.62,36.46,0.04,-272.75,-272.74,-36,549,-917,20.5,1.7,-32.3,20.5,1.7,-32.0,5.73,2.39,-31.0,25.5
2012-12-19 00:40:00,0.0,1.9166,0.0010,-1.00,0.00,-0.7,2.3,138.15,26.14,24.62,36.47,0.04,-272.75,-272.75,-36,549,-918,20.5,1.7,-32.4,20.5,1.7,-32.0,5.73,2.39,-31.0,25.5
2012-12-19 00:41:00,0.0,1.9166,0.0011,-1.00,0.00,-1.0,0.0,138.16,26.13,24.62,36.46,0.04,-272.75,-272.75,-36,549,-918,20.4,1.7,-32.5,20.5,1.7,-32.0,5.73,2.40,-31.0,25.5
2012-12-19 00:42:00,0.0,1.9166,0.0009,-1.00,0.00,-1.0,0.0,138.15,26.13,24.62,36.46,0.04,-272.75,-272.75,-36,549,-918,20.4,1.6,-32.5,20.5,1.7,-32.0,5.73,2.40,-31.0,25.5
2012-12-19 00:43:00,0.0,1.9165,0.0011,-1.00,0.00,-0.7,2.3,138.16,26.13,24.62,36.46,0.04,-272.75,-272.75,-36,549,-918,20.5,1.6,-32.5,20.5,1.7,-32.0,5.73,2.40,-31.0,25.5
2012-12-19 00:44:00,0.0,1.9163,0.0010,-1.00,0.00,-1.0,0.0,138.16,26.12,24.62,36.47,0.04,-272.75,-272.75,-36,549,-918,20.4,1.7,-32.5,20.5,1.7,-32.0,5.73,2.40,-31.0,25.5
2012-12-19 00:45:00,0.0,1.9166,0.0010,-1.00,0.00,-0.8,1.8,138.15,26.12,24.62,36.47,0.04,-272.75,-272.75,-36,549,-918,20.4,1.6,-32.5,20.5,1.7,-32.2,5.73,2.40,-31.0,25.5
2012-12-19 00:46:00,0.0,1.9165,0.0010,-1.00,0.00,-1.0,0.0,138.15,26.12,24.62,36.47,0.04,-272.74,-272.74,-36,549,-918,20.4,1.7,-32.5,20.5,1.7,-32.2,5.73,2.40,-31.1,25.5
2012-12-19 00:47:00,0.0,1.9171,0.0011,-1.00,0.00,-0.8,1.3,138.15,26.12,24.62,36.46,0.04,-272.75,-272.75,-36,549,-918,20.4,1.6,-32.5,20.5,1.7,-32.2,5.73,2.41,-31.1,25.5
2012-12-19 00:48:00,0.0,1.9168,0.0010,-1.00,0.00,-0.2,3.6,138.16,26.12,24.62,36.46,0.04,-272.75,-272.75,-36,549,-918,20.4,1.7,-32.5,20.5,1.7,-32.2,5.73,2.41,-31.0,25.5
2012-12-19 00:49:00,0.0,1.9165,0.0009,-1.00,0.00,-0.5,3.8,138.16,26.12,24.62,36.46,0.04,-272.75,-272.75,-36,549,-918,20.4,1.7,-32.5,20.5,1.7,-32.1,5.73,2.40,-31.0,25.5
2012-12-19 00:50:00,0.0,1.9169,0.0011,-1.00,0.00,-1.0,0.0,138.16,26.12,24.62,36.46,0.04,-272.75,-272.75,-36,549,-918,20.5,1.7,-32.5,20.5,1.7,-32.2,5.73,2.40,-31.1,25.4
2012-12-19 00:51:00,0.0,1.9169,0.0009,-1.00,0.00,-0.7,2.2,138.15,26.11,24.62,36.45,0.04,-272.75,-272.75,-36,549,-918,20.4,1.7,-32.5,20.5,1.7,-32.2,5.73,2.40,-31.0,25.4
2012-12-19 00:52:00,0.0,1.9172,0.0012,-1.00,0.00,-1.0,0.0,138.15,26.11,24.62,36.46,0.04,-272.75,-272.75,-36,549,-917,20.4,1.7,-32.5,20.5,1.7,-32.2,5.73,2.40,-31.0,25.4
2012-12-19 00:53:00,0.0,1.9169,0.0010,-1.00,0.00,-0.7,1.6,138.16,26.11,24.62,36.46,0.04,-272.74,-272.74,-36,549,-918,20.5,1.7,-32.5,20.5,1.7,-32.2,5.73,2.40,-31.0,25.4
2012-12-19 00:54:00,0.0,1.9167,0.0011,-1.00,0.00,-0.9,1.0,138.16,26.10,24.62,36.46,0.04,-272.75,-272.75,-36,549,-918,20.4,1.7,-32.5,20.5,1.7,-32.2,5.73,2.39,-31.0,25.4
2012-12-19 00:55:00,0.0,1.9170,0.0012,-1.00,0.00,-0.8,0.8,138.16,26.10,24.62,36.46,0.04,-272.75,-272.75,-36,549,-918,20.4,1.7,-32.5,20.4,1.7,-32.1,5.73,2.39,-31.0,25.4
2012-12-19 00:56:00,0.0,1.9170,0.0010,-1.00,0.00,-1.0,0.2,138.16,26.10,24.62,36.46,0.04,-272.75,-272.75,-36,549,-918,20.4,1.6,-32.5,20.4,1.7,-32.0,5.73,2.39,-31.0,25.4
2012-12-19 00:57:00,0.0,1.9173,0.0010,-1.00,0.00,-0.5,3.2,138.16,26.09,24.62,36.46,0.04,-272.75,-272.75,-36,549,-918,20.4,1.7,-32.5,20.4,1.7,-32.0,5.73,2.39,-31.0,25.5
2012-12-19 00:58:00,0.0,1.9170,0.0010,-1.00,0.00,-0.9,0.8,138.16,26.09,24.62,36.46,0.04,-272.75,-272.75,-36,549,-917,20.4,1.6,-32.5,20.4,1.7,-32.0,5.73,2.39,-31.0,25.4
2012-12-19 00:59:00,0.0,1.9169,0.0010,-1.00,0.00,-1.0,0.0,138.16,26.09,24.62,36.46,0.04,-272.75,-272.75,-36,549,-918,20.4,1.6,-32.5,20.4,1.7,-32.0,5.73,2.39,-31.0,25.4
2012-12-19 01:00:00,0.0,1.9167,0.0011,-1.00,0.00,-0.4,4.5,138.16,26.08,24.62,36.46,0.04,-272.75,-272.75,-36,549,-917,20.4,1.7,-32.5,20.5,1.7,-32.0,5.73,2.38,-31.1,25.4
2012-12-19 01:01:00,0.0,1.9167,0.0009,-1.00,0.00,-1.0,0.0,138.16,26.08,24.62,36.46,0.04,-272.75,-272.75,-36,549,-918,20.4,1.6,-32.6,20.4,1.7,-32.0,5.73,2.38,-31.0,25.4
2012-12-19 01:02:00,0.0,1.9166,0.0010,-1.00,0.00,-0.9,1.1,138.16,26.08,24.62,36.46,0.04,-272.74,-272.75,-36,549,-918,20.4,1.7,-32.5,20.4,1.7,-32.0,5.73,2.38,-31.0,25.4
2012-12-19 01:03:00,0.0,1.9167,0.0008,-1.00,0.00,-1.0,0.0,138.16,26.07,24.62,36.46,0.04,-272.75,-272.75,-36,549,-918,20.4,1.7,-32.5,20.4,1.7,-32.0,5.73,2.39,-31.0,25.4
2012-12-19 01:04:00,0.0,1.9159,0.0009,-1.00,0.00,-0.9,1.1,138.16,26.07,24.62,36.46,0.04,-272.75,-272.75,-36,549,-917,20.4,1.7,-32.5,20.4,1.7,-32.0,5.73,2.39,-31.0,25.5
2012-12-19 01:05:00,0.0,1.9162,0.0008,-1.00,0.00,-1.0,0.0,138.16,26.07,24.62,36.47,0.04,-272.75,-272.75,-36,549,-918,20.4,1.7,-32.5,20.4,1.7,-32.0,5.73,2.39,-31.0,25.4
2012-12-19 01:06:00,0.0,1.9159,0.0011,-1.00,0.00,-0.7,1.9,138.16,26.07,24.62,36.46,0.04,-272.75,-272.75,-36,549,-917,20.4,1.7,-32.5,20.4,1.7,-32.0,5.73,2.39,-31.0,25.4
2012-12-19 01:07:00,0.0,1.9160,0.0009,-1.00,0.00,-1.0,0.0,138.16,26.07,24.62,36.46,0.04,-272.75,-272.75,-36,549,-918,20.4,1.7,-32.5,20.4,1.7,-32.0,5.73,2.39,-31.0,25.4
2012-12-19 01:08:00,0.0,1.9161,0.0012,-1.00,0.00,-1.0,0.0,138.16,26.06,24.62,36.46,0.04,-272.75,-272.75,-36,549,-918,20.4,1.6,-32.6,20.4,1.7,-32.1,5.73,2.40,-31.0,25.4
2012-12-19 01:09:00,0.0,1.9161,0.0009,-1.00,0.00,-1.0,0.0,138.16,26.06,24.62,36.47,0.04,-272.75,-272.74,-36,549,-918,20.4,1.7,-32.5,20.4,1.7,-32.0,5.73,2.40,-31.0,25.4
2012-12-19 01:10:00,0.0,1.9163,0.0010,-1.00,0.00,-0.9,0.5,138.16,26.06,24.62,36.46,0.04,-272.75,-272.75,-36,549,-918,20.4,1.7,-32.5,20.4,1.7,-32.0,5.73,2.40,-31.0,25.4
2012-12-19 01:11:00,0.0,1.9161,0.0011,-1.00,0.00,-1.0,0.2,138.16,26.06,24.62,36.46,0.04,-272.75,-272.75,-36,549,-917,20.4,1.7,-32.5,20.4,1.7,-32.0,5.73,2.40,-31.1,25.4
2012-12-19 01:12:00,0.0,1.9160,0.0010,-1.00,0.00,-0.8,1.5,138.16,26.05,24.62,36.46,0.04,-272.75,-272.75,-36,548,-917,20.4,1.6,-32.6,20.4,1.7,-32.0,5.73,2.40,-31.1,25.4
2012-12-19 01:13:00,0.0,1.9159,0.0009,-1.00,0.00,-1.0,0.0,138.16,26.04,24.62,36.46,0.04,-272.75,-272.75,-36,549,-918,20.4,1.7,-32.5,20.4,1.7,-32.0,5.73,2.40,-31.1,25.4
2012-12-19 01:14:00,0.0,1.9161,0.0010,-1.00,0.00,-1.0,0.3,138.16,26.04,24.62,36.46,0.04,-272.75,-272.75,-36,548,-917,20.4,1.7,-32.5,20.4,1.7,-32.0,5.73,2.40,-31.1,25.4
2012-12-19 01:15:00,0.0,1.9164,0.0011,-1.00,0.00,-1.0,0.0,138.16,26.03,24.62,36.46,0.04,-272.75,-272.75,-36,549,-918,20.4,1.7,-32.5,20.4,1.7,-32.0,5.73,2.40,-31.1,25.4
2012-12-19 01:16:00,0.0,1.9158,0.0009,-1.00,0.00,-1.0,0.0,138.16,26.03,24.62,36.46,0.04,-272.74,-272.75,-36,548,-918,20.4,1.7,-32.5,20.4,1.7,-32.0,5.73,2.40,-31.1,25.4
2012-12-19 01:17:00,0.0,1.9161,0.0009,-1.00,0.00,-0.5,3.5,138.16,26.03,24.62,36.46,0.04,-272.75,-272.75,-36,548,-918,20.4,1.7,-32.6,20.4,1.7,-32.0,5.73,2.40,-31.1,25.4
2012-12-19 01:18:00,0.0,1.9161,0.0010,-1.00,0.00,-1.0,0.0,138.16,26.03,24.62,36.46,0.04,-272.75,-272.75,-36,548,-918,20.4,1.7,-32.5,20.4,1.7,-32.0,5.73,2.39,-31.1,25.4
2012-12-19 01:19:00,0.0,1.9162,0.0010,-1.00,0.00,-0.6,3.1,138.16,26.03,24.62,36.47,0.04,-272.75,-272.75,-36,549,-918,20.4,1.6,-32.6,20.4,1.7,-32.0,5.73,2.40,-31.1,25.4
2012-12-19 01:20:00,0.0,1.9166,0.0010,-1.00,0.00,-1.0,0.4,138.16,26.02,24.62,36.46,0.04,-272.75,-272.75,-36,549,-918,20.4,1.7,-32.5,20.4,1.7,-32.0,5.73,2.39,-31.1,25.4
2012-12-19 01:21:00,0.0,1.9166,0.0009,-1.00,0.00,-1.0,0.0,138.16,26.02,24.62,36.46,0.04,-272.75,-272.75,-36,548,-918,20.4,1.7,-32.5,20.4,1.7,-32.0,5.73,2.39,-31.1,25.4
2012-12-19 01:22:00,0.0,1.9165,0.0010,-1.00,0.00,-0.2,4.9,138.16,26.01,24.62,36.46,0.04,-272.75,-272.75,-36,549,-918,20.4,1.7,-32.5,20.4,1.7,-32.0,5.73,2.39,-31.1,25.4
2012-12-19 01:23:00,0.0,1.9164,0.0009,-1.00,0.00,-1.0,0.0,138.16,26.01,24.62,36.46,0.04,-272.75,-272.75,-36,548,-917,20.4,1.7,-32.5,20.4,1.7,-32.0,5.73,2.38,-31.1,25.4
2012-12-19 01:24:00,0.0,1.9166,0.0011,-1.00,0.00,-1.0,0.0,138.16,26.01,24.62,36.46,0.04,-272.75,-272.75,-36,548,-917,20.4,1.7,-32.5,20.4,1.7,-32.1,5.73,2.37,-31.1,25.4
2012-12-19 01:25:00,0.0,1.9166,0.0012,-1.00,0.00,-1.0,0.0,138.16,26.01,24.62,36.47,0.04,-272.75,-272.75,-36,548,-918,20.4,1.7,-32.5,20.4,1.7,-32.1,5.73,2.37,-31.1,25.3
2012-12-19 01:26:00,0.0,1.9163,0.0010,-1.00,0.00,-1.0,0.0,138.16,26.00,24.62,36.46,0.04,-272.75,-272.75,-36,548,-918,20.4,1.7,-32.6,20.4,1.7,-32.0,5.73,2.38,-31.1,25.3
2012-12-19 01:27:00,0.0,1.9167,0.0009,-1.00,0.00,-0.1,7.4,138.16,26.00,24.62,36.46,0.04,-272.74,-272.75,-36,548,-918,20.4,1.7,-32.5,20.4,1.7,-32.0,5.73,2.39,-31.1,25.3
2012-12-19 01:28:00,0.0,1.9166,0.0010,-1.00,0.00,-0.9,0.5,138.16,26.00,24.62,36.46,0.04,-272.75,-272.75,-36,548,-918,20.3,1.7,-32.6,20.4,1.7,-32.1,5.73,2.39,-31.1,25.3
2012-12-19 01:29:00,0.0,1.9167,0.0009,-1.00,0.00,-0.9,0.7,138.16,26.00,24.62,36.46,0.04,-272.75,-272.75,-36,548,-918,20.3,1.7,-32.6,20.4,1.7,-32.0,5.73,2.40,-31.1,25.3
2012-12-19 01:30:00,0.0,1.9163,0.0010,-1.00,0.00,-0.3,4.0,138.16,25.99,24.62,36.47,0.04,-272.75,-272.75,-36,548,-918,20.3,1.7,-32.6,20.4,1.7,-32.1,5.73,2.39,-31.1,25.3
2012-12-19 01:31:00,0.0,1.9162,0.0011,-1.00,0.00,-0.9,0.6,138.16,25.99,24.62,36.46,0.04,-272.75,-272.75,-36,548,-918,20.3,1.6,-32.6,20.4,1.7,-32.1,5.73,2.40,-31.1,25.3
2012-12-19 01:32:00,0.0,1.9161,0.0009,-1.00,0.00,-1.0,0.0,138.16,25.98,24.62,36.46,0.04,-272.75,-272.75,-36,548,-918,20.3,1.7,-32.6,20.4,1.7,-32.2,5.73,2.41,-31.1,25.3
2012-12-19 01:33:00,0.0,1.9158,0.0010,-1.00,0.00,-1.0,0.0,138.16,25.97,24.62,36.46,0.04,-272.75,-272.75,-36,548,-918,20.3,1.7,-32.6,20.4,1.7,-32.2,5.73,2.41,-31.1,25.3
2012-12-19 01:34:00,0.0,1.9160,0.0011,-1.00,0.00,-1.0,0.0,138.16,25.95,24.62,36.46,0.04,-272.75,-272.75,-36,548,-918,20.3,1.7,-32.6,20.3,1.7,-32.3,5.73,2.41,-31.1,25.3
2012-12-19 01:35:00,0.0,1.9158,0.0010,-1.00,0.00,-1.0,0.0,138.16,25.93,24.62,36.46,0.04,-272.75,-272.75,-36,548,-918,20.3,1.6,-32.6,20.3,1.7,-32.3,5.73,2.41,-31.2,25.3
2012-12-19 01:36:00,0.0,1.9154,0.0011,-1.00,0.00,-0.9,1.0,138.16,25.92,24.62,36.46,0.04,-272.75,-272.74,-36,548,-918,20.3,1.7,-32.6,20.3,1.7,-32.2,5.73,2.41,-31.2,25.3
2012-12-19 01:37:00,0.0,1.9161,0.0010,-1.00,0.00,-0.7,1.5,138.16,25.92,24.62,36.46,0.04,-272.75,-272.75,-36,548,-918,20.3,1.7,-32.6,20.3,1.7,-32.2,5.73,2.41,-31.1,25.3
2012-12-19 01:38:00,0.0,1.9155,0.0009,-1.00,0.00,-0.6,2.7,138.16,25.92,24.62,36.46,0.04,-272.75,-272.75,-36,548,-918,20.3,1.7,-32.6,20.3,1.7,-32.2,5.73,2.40,-31.2,25.3
2012-12-19 01:39:00,0.0,1.9156,0.0010,-1.00,0.00,-0.8,1.8,138.16,25.92,24.62,36.46,0.04,-272.75,-272.75,-36,548,-918,20.3,1.7,-32.6,20.3,1.7,-32.2,5.73,2.39,-31.2,25.3
2012-12-19 01:40:00,0.0,1.9157,0.0009,-1.00,0.00,-1.0,0.0,138.16,25.91,24.62,36.46,0.04,-272.75,-272.74,-36,548,-918,20.3,1.7,-32.6,20.3,1.7,-32.2,5.73,2.39,-31.2,25.3
2012-12-19 01:41:00,0.0,1.9154,0.0010,-1.00,0.00,-0.8,1.5,138.16,25.90,24.62,36.46,0.04,-272.75,-272.75,-36,548,-918,20.3,1.7,-32.6,20.3,1.7,-32.1,5.73,2.38,-31.2,25.3
2012-12-19 01:42:00,0.0,1.9156,0.0010,-1.00,0.00,-0.7,2.5,138.16,25.90,24.62,36.46,0.04,-272.75,-272.75,-36,548,-918,20.2,1.7,-32.6,20.3,1.7,-32.1,5.73,2.38,-31.2,25.3
2012-12-19 01:43:00,0.0,1.9151,0.0009,-1.00,0.00,-1.0,0.0,138.16,25.91,24.62,36.46,0.04,-272.75,-272.75,-36,548,-918,20.3,1.7,-32.6,20.3,1.7,-32.1,5.73,2.38,-31.2,25.3
2012-12-19 01:44:00,0.0,1.9157,0.0010,-1.00,0.00,-0.9,0.4,138.16,25.91,24.62,36.46,0.04,-272.75,-272.75,-36,548,-918,20.3,1.7,-32.6,20.3,1.7,-32.1,5.73,2.38,-31.2,25.3
2012-12-19 01:45:00,0.0,1.9153,0.0012,-1.00,0.00,-1.0,0.0,138.16,25.91,24.62,36.46,0.04,-272.75,-272.75,-36,548,-918,20.3,1.7,-32.6,20.3,1.7,-32.2,5.73,2.38,-31.2,25.3
2012-12-19 01:46:00,0.0,1.9161,0.0012,-1.00,0.00,-0.8,1.2,138.16,25.91,24.62,36.46,0.04,-272.75,-272.75,-35,548,-918,20.2,1.7,-32.6,20.3,1.7,-32.2,5.73,2.38,-31.2,25.3
2012-12-19 01:47:00,0.0,1.9159,0.0012,-1.00,0.00,-1.0,0.0,138.16,25.91,24.62,36.46,0.04,-272.75,-272.75,-35,548,-918,20.2,1.6,-32.7,20.3,1.7,-32.2,5.73,2.39,-31.2,25.3
2012-12-19 01:48:00,0.0,1.9157,0.0008,-1.00,0.00,-0.2,3.8,138.16,25.90,24.62,36.45,0.04,-272.75,-272.75,-35,548,-918,20.2,1.7,-32.6,20.3,1.7,-32.2,5.73,2.40,-31.2,25.3
2012-12-19 01:49:00,0.0,1.9157,0.0009,-1.00,0.00,-1.0,0.0,138.16,25.89,24.62,36.46,0.04,-272.75,-272.75,-35,548,-918,20.2,1.7,-32.6,20.3,1.7,-32.3,5.73,2.41,-31.2,25.3
2012-12-19 01:50:00,0.0,1.9162,0.0009,-1.00,0.00,-1.0,0.0,138.16,25.89,24.62,36.46,0.04,-272.75,-272.75,-35,548,-918,20.2,1.7,-32.6,20.3,1.7,-32.3,5.73,2.41,-31.2,25.2
2012-12-19 01:51:00,0.0,1.9157,0.0011,-1.00,0.00,-1.0,0.0,138.16,25.89,24.62,36.45,0.04,-272.75,-272.74,-35,548,-918,20.2,1.7,-32.6,20.3,1.7,-32.3,5.73,2.41,-31.2,25.3
2012-12-19 01:52:00,0.0,1.9156,0.0008,-1.00,0.00,-0.7,2.4,138.16,25.89,24.62,36.46,0.04,-272.75,-272.75,-35,548,-918,20.3,1.7,-32.6,20.3,1.7,-32.3,5.73,2.42,-31.2,25.2
2012-12-19 01:53:00,0.0,1.9161,0.0009,-1.00,0.00,-0.9,0.8,138.16,25.89,24.62,36.46,0.04,-272.75,-272.75,-35,548,-918,20.3,1.7,-32.6,20.3,1.7,-32.2,5.73,2.41,-31.2,25.3
2012-12-19 01:54:00,0.0,1.9161,0.0011,-1.00,0.00,-1.0,0.0,138.16,25.89,24.62,36.46,0.04,-272.75,-272.75,-35,548,-918,20.2,1.7,-32.6,20.3,1.7,-32.3,5.73,2.41,-31.2,25.3
2012-12-19 01:55:00,0.0,1.9161,0.0008,-1.00,0.00,-0.9,0.6,138.16,25.89,24.62,36.46,0.04,-272.75,-272.75,-35,548,-918,20.2,1.7,-32.6,20.3,1.7,-32.3,5.73,2.40,-31.2,25.3
2012-12-19 01:56:00,0.0,1.9159,0.0009,-1.00,0.00,-1.0,0.0,138.16,25.89,24.62,36.46,0.04,-272.75,-272.75,-35,548,-918,20.2,1.7,-32.6,20.3,1.7,-32.3,5.73,2.40,-31.2,25.2
2012-12-19 01:57:00,0.0,1.9168,0.0010,-1.00,0.00,-1.0,0.3,138.16,25.88,24.62,36.45,0.04,-272.75,-272.75,-35,548,-918,20.2,1.7,-32.6,20.3,1.7,-32.3,5.73,2.40,-31.2,25.2
2012-12-19 01:58:00,0.0,1.9161,0.0010,-1.00,0.00,-1.0,0.0,138.16,25.87,24.61,36.46,0.04,-272.75,-272.75,-35,548,-918,20.2,1.6,-32.7,20.3,1.7,-32.3,5.73,2.39,-31.2,25.2
2012-12-19 01:59:00,0.0,1.9159,0.0009,-1.00,0.00,-1.0,0.0,138.16,25.87,24.62,36.45,0.04,-272.75,-272.75,-35,548,-918,20.2,1.6,-32.9,20.3,1.7,-32.3,5.73,2.38,-31.2,25.2
2012-12-19 02:00:00,0.0,1.9160,0.0008,-1.00,0.00,-1.0,0.0,138.16,25.86,24.62,36.46,0.04,-272.75,-272.75,-35,548,-918,20.2,1.6,-32.8,20.3,1.7,-32.3,5.73,2.38,-31.2,25.2
2012-12-19 02:01:00,0.0,1.9160,0.0011,-1.00,0.00,-0.9,0.5,138.16,25.86,24.62,36.46,0.04,-272.75,-272.75,-35,548,-918,20.2,1.6,-32.9,20.2,1.7,-32.5,5.73,2.38,-31.2,25.2
2012-12-19 02:02:00,0.0,1.9155,0.0009,-1.00,0.00,-0.8,1.5,138.16,25.86,24.62,36.46,0.04,-272.75,-272.75,-35,548,-918,20.2,1.6,-32.8,20.3,1.7,-32.4,5.73,2.38,-31.2,25.2
2012-12-19 02:03:00,0.0,1.9159,0.0009,-1.00,0.00,-1.0,0.0,138.16,25.86,24.62,36.46,0.04,-272.75,-272.75,-35,548,-918,20.2,1.6,-32.8,20.3,1.7,-32.4,5.73,2.38,-31.2,25.2
2012-12-19 02:04:00,0.0,1.9163,0.0008,-1.00,0.00,-1.0,0.0,138.16,25.85,24.62,36.46,0.04,-272.75,-272.75,-35,548,-918,20.2,1.6,-32.8,20.3,1.7,-32.4,5.73,2.39,-31.2,25.2
2012-12-19 02:05:00,0.0,1.9161,0.0009,-1.00,0.00,-1.0,0.0,138.16,25.84,24.62,36.46,0.04,-272.75,-272.75,-35,548,-918,20.2,1.6,-32.8,20.2,1.7,-32.5,5.73,2.40,-31.2,25.2
2012-12-19 02:06:00,0.0,1.9164,0.0008,-1.00,0.00,-1.0,0.0,138.16,25.83,24.61,36.46,0.04,-272.75,-272.75,-35,548,-918,20.2,1.6,-32.8,20.2,1.7,-32.5,5.73,2.40,-31.2,25.2
2012-12-19 02:07:00,0.0,1.9161,0.0009,-1.00,0.00,-1.0,0.0,138.16,25.83,24.62,36.46,0.04,-272.75,-272.75,-35,548,-918,20.2,1.6,-32.9,20.2,1.7,-32.5,5.73,2.41,-31.3,25.2
2012-12-19 02:08:00,0.0,1.9159,0.0008,-1.00,0.00,-1.0,0.3,138.16,25.83,24.62,36.46,0.04,-272.75,-272.75,-35,548,-918,20.2,1.6,-32.9,20.2,1.7,-32.5,5.73,2.41,-31.2,25.2
2012-12-19 02:09:00,0.0,1.9159,0.0009,-1.00,0.00,-1.0,0.0,138.16,25.83,24.62,36.46,0.04,-272.75,-272.75,-35,548,-918,20.1,1.6,-32.9,20.2,1.7,-32.5,5.73,2.41,-31.2,25.2
2012-12-19 02:10:00,0.0,1.9165,0.0007,-1.00,0.00,-1.0,0.0,138.16,25.84,24.61,36.46,0.04,-272.74,-272.75,-35,548,-918,20.1,1.6,-32.8,20.2,1.7,-32.5,5.73,2.42,-31.3,25.2
2012-12-19 02:11:00,0.0,1.9167,0.0009,-1.00,0.00,-1.0,0.0,138.16,25.84,24.61,36.46,0.04,-272.75,-272.75,-35,548,-918,20.1,1.6,-32.9,20.2,1.7,-32.5,5.73,2.41,-31.3,25.2
2012-12-19 02:12:00,0.0,1.9164,0.0011,-1.00,0.00,-1.0,0.0,138.16,25.83,24.62,36.46,0.04,-272.75,-272.75,-35,548,-918,20.1,1.6,-32.9,20.2,1.7,-32.5,5.73,2.40,-31.2,25.2
2012-12-19 02:13:00,0.0,1.9161,0.0012,-1.00,0.00,-0.9,0.6,138.16,25.82,24.62,36.46,0.04,-272.75,-272.75,-35,548,-918,20.1,1.6,-32.9,20.2,1.7,-32.5,5.73,2.40,-31.2,25.2
2012-12-19 02:14:00,0.0,1.9162,0.0010,-1.00,0.00,-1.0,0.0,138.16,25.81,24.62,36.45,0.04,-272.75,-272.75,-35,548,-918,20.1,1.6,-32.8,20.2,1.7,-32.5,5.73,2.39,-31.2,25.2
2012-12-19 02:15:00,0.0,1.9163,0.0009,-1.00,0.00,-0.8,1.7,138.16,25.81,24.62,36.45,0.04,-272.75,-272.75,-35,548,-918,20.1,1.6,-32.9,20.2,1.7,-32.5,5.73,2.38,-31.2,25.2
2012-12-19 02:16:00,0.0,1.9163,0.0010,-1.00,0.00,-1.0,0.0,138.16,25.81,24.62,36.45,0.04,-272.75,-272.75,-35,548,-918,20.1,1.6,-32.9,20.2,1.7,-32.5,5.73,2.38,-31.2,25.2
2012-12-19 02:17:00,0.0,1.9164,0.0009,-1.00,0.00,-1.0,0.0,138.16,25.81,24.62,36.46,0.04,-272.75,-272.75,-35,548,-918,20.1,1.6,-32.8,20.2,1.7,-32.5,5.73,2.38,-31.2,25.1
2012-12-19 02:18:00,0.0,1.9167,0.0010,-1.00,0.00,-1.0,0.0,138.16,25.80,24.61,36.45,0.04,-272.75,-272.75,-35,548,-918,20.1,1.6,-33.0,20.2,1.7,-32.5,5.73,2.38,-31.2,25.2
2012-12-19 02:19:00,0.0,1.9166,0.0009,-1.00,0.00,-1.0,0.0,138.16,25.80,24.62,36.46,0.04,-272.75,-272.75,-35,548,-918,20.1,1.6,-32.9,20.2,1.7,-32.5,5.73,2.39,-31.1,25.2